Location: Axtheid
(49.6213°N, 11.8205°E)
Time: 13:37:28
(UTC+00:00)

COSMOS 2406 - Pass Details

Date: 24 January 2021
Orbit: 841 x 866 km, 71.0° (Epoch: 25 February)

Event Time Altitude Azimuth Distance (km) Brightness Sun altitude
Rises 18:22:20 0° 329° (NNW) 3,460 6.8 -23.6°
Reaches altitude 10° 18:24:49 10° 328° (NNW) 2,518 6.0 -24.0°
Maximum altitude 18:30:35 71° 245° (WSW) 915 3.4 -24.9°
Enters shadow 18:34:33 21° 166° (SSE) 1,858 4.8 -25.6°
